FW0780 Weather Reports


time (UTC)temp
C
wind
direction
speed
KPH
gust
KPH
rain 1hr
cm
rain 24hr
cm
rain mn
cm
humidity
%
barometer
mb
20260905223048 12 267 3.2 8.0 0.08 0.10 0.05 88 1016.3
20260905221600 12 268 6.4 12.9 0.08 0.10 0.05 86 1016.2
20260905220042 13 274 11.3 24.1 0.03 0.05 0.00 81 1016.5
20260905214538 15 307 17.7 30.6 0.00 0.03 0.03 71 1016.4
20260905211532 14 233 3.2 4.8 0.00 0.03 0.03 76 1015.4
20260905210031 14 249 3.2 6.4 0.00 0.03 0.03 75 1015.4
20260905204530 14 260 4.8 9.7 0.00 0.03 0.03 76 1015.4
20260905203027 15 252 4.8 11.3 0.00 0.03 0.03 73 1015.4
20260905201527 15 252 4.8 12.9 0.00 0.03 0.03 73 1015.3
20260905200028 15 238 4.8 11.3 0.00 0.03 0.03 74 1015.2
20260905194526 15 258 3.2 11.3 0.00 0.03 0.03 74 1015.3
20260905193024 15 257 3.2 8.0 0.00 0.03 0.03 73 1015.1
20260905191526 15 257 3.2 6.4 0.00 0.03 0.03 72 1015.1
20260905190035 15 254 1.6 4.8 0.00 0.03 0.03 70 1015.1
20260905184519 16 256 1.6 6.4 0.00 0.03 0.03 69 1015.0
20260905183018 16 261 3.2 14.5 0.00 0.03 0.03 67 1014.8
20260905181517 16 256 9.7 24.1 0.00 0.03 0.03 65 1014.8
20260905180019 17 300 12.9 30.6 0.00 0.03 0.03 62 1015.2
20260905174514 17 249 3.2 6.4 0.00 0.03 0.03 60 1014.7
20260905173013 18 238 4.8 8.0 0.00 0.03 0.03 58 1014.5
20260905171512 18 248 4.8 9.7 0.00 0.03 0.03 56 1014.3
20260905170012 18 261 4.8 16.1 0.00 0.03 0.03 54 1014.2
20260905164509 19 288 8.0 19.3 0.00 0.03 0.03 52 1014.2
20260905163007 20 298 11.3 25.7 0.00 0.03 0.03 50 1014.2
20260905161511 20 273 16.1 24.1 0.00 0.03 0.03 49 1014.2
20260905160007 20 288 14.5 27.4 0.00 0.03 0.03 49 1014.0
20260905154503 20 281 14.5 25.7 0.00 0.03 0.03 50 1013.9
20260905153002 20 277 12.9 25.7 0.00 0.03 0.03 48 1013.9
20260905150059 21 273 17.7 30.6 0.00 0.03 0.03 48 1013.7
20260905144559 21 288 11.3 25.7 0.00 0.03 0.03 48 1013.6
20260905143158 21 277 16.1 41.8 0.00 0.03 0.03 48 1013.6
20260905141556 21 289 24.1 33.8 0.00 0.03 0.03 47 1013.4
20260905134601 21 270 17.7 29.0 0.00 0.03 0.03 48 1013.3
20260905133053 21 273 19.3 29.0 0.00 0.03 0.03 50 1013.2
20260905131552 21 281 14.5 38.6 0.00 0.03 0.03 52 1013.2
20260905130052 21 283 16.1 32.2 0.00 0.03 0.03 51 1013.2
20260905124555 21 265 22.5 40.2 0.00 0.03 0.03 52 1013.3
20260905123050 20 255 17.7 30.6 0.00 0.03 0.03 54 1013.5
20260905121549 20 269 11.3 30.6 0.00 0.03 0.03 56 1013.5
20260905120100 21 275 16.1 30.6 0.00 0.03 0.03 53 1013.5
20260905114601 21 245 17.7 30.6 0.00 0.03 0.03 54 1013.5
20260905113055 20 281 12.9 40.2 0.00 0.03 0.03 55 1013.6
20260905111632 20 281 14.5 30.6 0.00 0.03 0.03 57 1013.7
20260905110043 20 242 14.5 30.6 0.00 0.03 0.03 60 1013.6
20260905104542 20 264 16.1 37.0 0.00 0.03 0.03 60 1013.6
20260905103040 18 254 12.9 25.7 0.00 0.03 0.03 67 1013.5
20260905101537 18 277 17.7 27.4 0.00 0.03 0.03 66 1013.3
20260905100036 18 257 14.5 29.0 0.00 0.03 0.03 69 1013.1
20260905094536 18 266 14.5 30.6 0.00 0.03 0.03 69 1013.1
20260905093040 18 280 11.3 33.8 0.00 0.03 0.03 70 1013.1
20260905091533 18 261 24.1 33.8 0.00 0.03 0.03 70 1013.1
20260905090032 18 244 16.1 32.2 0.00 0.03 0.03 74 1013.2
20260905084533 17 254 22.5 33.8 0.00 0.03 0.03 76 1013.3
20260905083030 17 270 14.5 25.7 0.00 0.03 0.03 76 1013.2
20260905081527 17 212 9.7 20.9 0.00 0.03 0.03 80 1013.0
20260905074523 17 267 17.7 27.4 0.00 0.03 0.03 82 1012.8
20260905073029 17 248 17.7 22.5 0.00 0.03 0.03 82 1012.7
20260905071520 17 247 11.3 25.7 0.00 0.03 0.03 84 1012.4
20260905070025 16 250 14.5 25.7 0.00 0.03 0.03 85 1012.5
20260905064534 16 258 12.9 25.7 0.00 0.03 0.03 85 1012.2
20260905063014 16 260 8.0 20.9 0.00 0.03 0.03 86 1012.1
20260905061509 16 236 11.3 25.7 0.00 0.03 0.03 86 1011.7
20260905060007 16 223 11.3 17.7 0.00 0.03 0.03 85 1011.4
20260905054508 16 230 14.5 20.9 0.00 0.03 0.03 85 1011.8
20260905053002 16 252 11.3 29.0 0.00 0.03 0.03 85 1011.4
20260905051600 16 281 16.1 22.5 0.00 0.03 0.03 84 1011.2
20260905044555 16 253 12.9 24.1 0.00 0.03 0.03 84 1010.6
20260905043056 16 265 9.7 24.1 0.00 0.03 0.03 84 1010.4
20260905041556 16 258 17.7 32.2 0.00 0.03 0.03 83 1010.2
20260905040049 16 259 14.5 25.7 0.00 0.03 0.03 84 1009.9
20260905034546 16 240 16.1 27.4 0.00 0.03 0.03 83 1009.6
20260905033044 16 234 11.3 32.2 0.00 0.03 0.03 84 1009.9
20260905031542 16 268 16.1 27.4 0.00 0.03 0.03 84 1009.7
20260905030038 16 236 17.7 30.6 0.03 0.03 0.03 83 1008.9
20260905024535 16 240 12.9 27.4 0.03 0.03 0.03 83 1009.1
20260905023032 16 227 16.1 27.4 0.03 0.03 0.03 82 1009.0
20260905021537 17 242 19.3 30.6 0.00 0.00 0.00 79 1008.6
20260905020028 17 236 12.9 27.4 0.00 0.00 0.00 77 1008.3
20260905014523 17 254 16.1 30.6 0.00 0.00 0.00 78 1008.6
20260905013024 17 255 12.9 29.0 0.00 0.00 0.00 78 1008.5
20260905011519 18 271 20.9 35.4 0.00 0.00 0.00 78 1008.4
20260905010016 18 284 22.5 37.0 0.00 0.00 0.00 77 1008.1
20260905004612 19 284 19.3 30.6 0.00 0.00 0.00 75 1007.9
20260905003009 19 285 22.5 30.6 0.00 0.00 0.00 73 1007.6
20260905001505 20 278 12.9 33.8 0.00 0.00 0.00 73 1007.4
20260905000005 20 281 17.7 29.0 0.00 0.00 0.00 78 1007.2
20260904234607 20 265 3.2 9.7 0.00 0.00 0.00 80 1006.9
20260904233057 20 241 4.8 9.7 0.00 0.00 0.00 79 1006.8
20260904231553 20 296 12.9 25.7 0.00 0.00 0.00 76 1006.9
20260904230050 21 307 9.7 27.4 0.00 0.00 0.00 72 1006.7
20260904224547 21 273 11.3 29.0 0.00 0.00 0.00 71 1006.5